Crockett, TX

12:12 PM CST on November 20, 2017 (GMT -0600)
Crockett

Weather History for KDKR - September, 2013

Change the Weather History Date:

Sunday, September 22, 2013

  Actual Average (KLFK) Record (KLFK)
Temperature  
Mean Temperature 70 °F -  
Max Temperature 84 °F 84 °F 103 °F (2005)
Min Temperature 55 °F 61 °F 44 °F (1983)
Cooling Degree Days 4    
Growing Degree Days 20 (Base 50)    
Moisture  
Dew Point 52 °F    
Average Humidity 59    
Maximum Humidity 94    
Minimum Humidity 25    
Precipitation  
Precipitation 0.00 in - - ()
Sea Level Pressure  
Sea Level Pressure 29.88 in    
Wind  
Wind Speed 0 mph (North)    
Max Wind Speed 0 mph    
Max Gust Speed -    
Visibility 10 miles    
Events      
Averages and records for this station are not official NWS values.
T = Trace of Precipitation, MM = Missing Value Source: NWS Daily Summary

Daily Weather History Graph

Daily Weather History Graph

Search for Another Location

Airport or City:

Trip Planner

Search our weather history database for the weather conditions in past years. The results will help you decide how hot, cold, wet, or windy it might be!

Date:

Astronomy

Sep. 22, 2013 Rise Set
Actual Time 7:10 AM CDT 7:17 PM CDT
Civil Twilight 6:45 AM CDT 7:42 PM CDT
Nautical Twilight 6:17 AM CDT 8:10 PM CDT
Astronomical Twilight 5:49 AM CDT 8:38 PM CDT
Moon 9:24 PM CDT (9/22) 10:16 AM CDT (9/22)
Length of Visible Light 12h 56m
Length of Day
12h 07m
Waning Gibbous, 88% of the Moon is Illuminated
Sep 22
Waning Gibbous
Sep 26
Last Quarter
Oct 4
New
Oct 11
First Quarter
Oct 18
Full

Hourly Weather History & Observations

Time (CDT) Temp. Dew Point Humidity Pressure Visibility Wind Dir Wind Speed Gust Speed Precip Events Conditions
12:15 AM 64.4 °F 55.4 °F 73% 29.89 in 10.0 mi Calm Calm - N/A   Clear
12:35 AM 64.4 °F 55.4 °F 73% 29.89 in 10.0 mi Calm Calm - N/A   Clear
12:55 AM 64.4 °F 55.4 °F 73% 29.89 in 10.0 mi Calm Calm - N/A   Clear
1:15 AM 64.4 °F 55.4 °F 73% 29.89 in 10.0 mi Calm Calm - N/A   Clear
1:35 AM 64.4 °F 55.4 °F 73% 29.89 in 10.0 mi Calm Calm - N/A   Clear
1:55 AM 62.6 °F 55.4 °F 77% 29.89 in 10.0 mi Calm Calm - N/A   Clear
2:15 AM 62.6 °F 55.4 °F 77% 29.89 in 10.0 mi Calm Calm - N/A   Clear
2:35 AM 62.6 °F 53.6 °F 72% 29.89 in 10.0 mi Calm Calm - N/A   Clear
2:55 AM 62.6 °F 53.6 °F 72% 29.89 in 10.0 mi Calm Calm - N/A   Clear
3:15 AM 62.6 °F 53.6 °F 72% 29.88 in 10.0 mi Calm Calm - N/A   Clear
3:35 AM 60.8 °F 53.6 °F 77% 29.88 in 10.0 mi Calm Calm - N/A   Clear
3:55 AM 59.0 °F 53.6 °F 82% 29.88 in 10.0 mi Calm Calm - N/A   Clear
4:15 AM 60.8 °F 53.6 °F 77% 29.87 in 10.0 mi Calm Calm - N/A   Clear
4:35 AM 60.8 °F 53.6 °F 77% 29.87 in 10.0 mi Calm Calm - N/A   Clear
4:55 AM 59.0 °F 53.6 °F 82% 29.88 in 10.0 mi Calm Calm - N/A   Clear
5:15 AM 59.0 °F 53.6 °F 82% 29.88 in 10.0 mi Calm Calm - N/A   Clear
5:35 AM 57.2 °F 53.6 °F 88% 29.88 in 10.0 mi Calm Calm - N/A   Clear
5:55 AM 57.2 °F 53.6 °F 88% 29.88 in 10.0 mi Calm Calm - N/A   Clear
6:15 AM 57.2 °F 53.6 °F 88% 29.89 in 10.0 mi Calm Calm - N/A   Clear
6:35 AM 55.4 °F 53.6 °F 94% 29.89 in 10.0 mi Calm Calm - N/A   Clear
6:55 AM 57.2 °F 53.6 °F 88% 29.89 in 10.0 mi Calm Calm - N/A   Clear
7:15 AM 57.2 °F 53.6 °F 88% 29.90 in 10.0 mi Calm Calm - N/A   Clear
7:35 AM 57.2 °F 53.6 °F 88% 29.90 in 10.0 mi Calm Calm - N/A   Clear
7:55 AM 60.8 °F 53.6 °F 77% 29.91 in 10.0 mi Calm Calm - N/A   Clear
8:15 AM 62.6 °F 55.4 °F 77% 29.91 in 10.0 mi Calm Calm - N/A   Clear
8:35 AM 64.4 °F 53.6 °F 68% 29.92 in 10.0 mi Calm Calm - N/A   Clear
8:55 AM 64.4 °F 53.6 °F 68% 29.92 in 10.0 mi Calm Calm - N/A   Clear
9:15 AM 66.2 °F 55.4 °F 68% 29.92 in 10.0 mi Calm Calm - N/A   Clear
9:35 AM 69.8 °F 55.4 °F 60% 29.93 in 10.0 mi Calm Calm - N/A   Clear
9:55 AM 71.6 °F 55.4 °F 57% 29.93 in 10.0 mi Calm Calm - N/A   Clear
10:15 AM 71.6 °F 53.6 °F 53% 29.93 in 10.0 mi Calm Calm - N/A   Clear
10:35 AM 73.4 °F 53.6 °F 50% 29.94 in 10.0 mi Calm Calm - N/A   Clear
10:55 AM 73.4 °F 53.6 °F 50% 29.94 in 10.0 mi Calm Calm - N/A   Clear
11:15 AM 75.2 °F 53.6 °F 47% 29.94 in 10.0 mi Calm Calm - N/A   Clear
11:35 AM 75.2 °F 53.6 °F 47% 29.94 in 10.0 mi Calm Calm - N/A   Clear
11:55 AM 75.2 °F 53.6 °F 47% 29.94 in 10.0 mi Calm Calm - N/A   Clear
12:15 PM 77.0 °F 53.6 °F 44% 29.94 in 10.0 mi Calm Calm - N/A   Clear
12:35 PM 78.8 °F 51.8 °F 39% 29.93 in 10.0 mi Calm Calm - N/A   Clear
12:55 PM 78.8 °F 50.0 °F 36% 29.92 in 10.0 mi Calm Calm - N/A   Clear
1:15 PM 80.6 °F 51.8 °F 37% 29.91 in 10.0 mi Calm Calm - N/A   Clear
1:35 PM 80.6 °F 48.2 °F 32% 29.90 in 10.0 mi Calm Calm - N/A   Clear
1:55 PM 80.6 °F 48.2 °F 32% 29.89 in 10.0 mi Calm Calm - N/A   Clear
2:15 PM 80.6 °F 48.2 °F 32% 29.88 in 10.0 mi Calm Calm - N/A   Clear
2:35 PM 82.4 °F 46.4 °F 28% 29.87 in 10.0 mi Calm Calm - N/A   Clear
2:55 PM 82.4 °F 46.4 °F 28% 29.86 in 10.0 mi Calm Calm - N/A   Clear
3:15 PM 82.4 °F 44.6 °F 26% 29.85 in 10.0 mi Calm Calm - N/A   Clear
3:35 PM 84.2 °F 44.6 °F 25% 29.84 in 10.0 mi Calm Calm - N/A   Clear
3:55 PM 84.2 °F 44.6 °F 25% 29.83 in 10.0 mi Calm Calm - N/A   Clear
4:15 PM 84.2 °F 44.6 °F 25% 29.82 in 10.0 mi Calm Calm - N/A   Clear
4:35 PM 84.2 °F 44.6 °F 25% 29.82 in 10.0 mi Calm Calm - N/A   Clear
4:55 PM 84.2 °F 44.6 °F 25% 29.81 in 10.0 mi Calm Calm - N/A   Clear
5:15 PM 84.2 °F 46.4 °F 27% 29.81 in 10.0 mi Calm Calm - N/A   Clear
5:35 PM 82.4 °F 46.4 °F 28% 29.81 in 10.0 mi Calm Calm - N/A   Clear
5:55 PM 82.4 °F 46.4 °F 28% 29.81 in 10.0 mi Calm Calm - N/A   Clear
6:15 PM 82.4 °F 46.4 °F 28% 29.82 in 10.0 mi Calm Calm - N/A   Clear
6:35 PM 80.6 °F 46.4 °F 30% 29.82 in 10.0 mi Calm Calm - N/A   Clear
6:55 PM 78.8 °F 48.2 °F 34% 29.83 in 10.0 mi Calm Calm - N/A   Clear
7:15 PM 75.2 °F 50.0 °F 41% 29.83 in 10.0 mi Calm Calm - N/A   Clear
7:35 PM 69.8 °F 53.6 °F 56% 29.83 in 10.0 mi Calm Calm - N/A   Clear
7:55 PM 69.8 °F 53.6 °F 56% 29.83 in 10.0 mi Calm Calm - N/A   Clear
8:15 PM 66.2 °F 55.4 °F 68% 29.84 in 10.0 mi Calm Calm - N/A   Clear
8:35 PM 64.4 °F 55.4 °F 73% 29.84 in 10.0 mi Calm Calm - N/A   Clear
8:55 PM 64.4 °F 55.4 °F 73% 29.85 in 10.0 mi Calm Calm - N/A   Clear
9:15 PM 64.4 °F 55.4 °F 73% 29.85 in 10.0 mi Calm Calm - N/A   Clear
9:35 PM 62.6 °F 55.4 °F 77% 29.85 in 10.0 mi Calm Calm - N/A   Clear
9:55 PM 62.6 °F 55.4 °F 77% 29.85 in 10.0 mi Calm Calm - N/A   Clear
10:15 PM 62.6 °F 55.4 °F 77% 29.86 in 10.0 mi Calm Calm - N/A   Clear
10:35 PM 64.4 °F 53.6 °F 68% 29.86 in 10.0 mi Calm Calm - N/A   Clear
10:55 PM 62.6 °F 53.6 °F 72% 29.86 in 10.0 mi Calm Calm - N/A   Clear
11:15 PM 64.4 °F 51.8 °F 64% 29.86 in 10.0 mi Calm Calm - N/A   Clear
11:35 PM 66.2 °F 53.6 °F 64% 29.86 in 10.0 mi Calm Calm - N/A   Clear
11:55 PM 66.2 °F 51.8 °F 60% 29.86 in 10.0 mi Calm Calm - N/A   Clear